Weather History for Boonville, MO

Change the Weather History Date:

Sunday, May 19, 2013

  Actual Average Record
Temperature  
Mean Temperature 76 °F -  
Max Temperature 90 °F 78 °F 90 °F (1962)
Min Temperature 66 °F 55 °F 35 °F (1968)
Cooling Degree Days 11    
Growing Degree Days 26 (Base 50)    
Moisture  
Dew Point 67 °F    
Average Humidity 72    
Maximum Humidity 96    
Minimum Humidity 46    
Precipitation  
Precipitation 0.02 in - - ()
Sea Level Pressure  
Sea Level Pressure 29.75 in    
Wind  
Wind Speed 9 mph (SSE)    
Max Wind Speed 25 mph    
Max Gust Speed 36 mph    
Visibility 8 miles    
Events Rain , Thunderstorm    
Averages and records for this station are not official NWS values.
T = Trace of Precipitation, MM = Missing Value Source: NWS Daily Summary

Daily Weather History Graph

Daily Weather History Graph

Search for Another Location

Airport:

Trip Planner

Search our weather history database for the weather conditions in past years. The results will help you decide how hot, cold, wet, or windy it might be!

Date:

Astronomy

May. 19, 2013 Rise Set
Actual Time 5:54 AM CDT 8:20 PM CDT
Civil Twilight 5:24 AM CDT 8:50 PM CDT
Nautical Twilight 4:46 AM CDT 9:28 PM CDT
Astronomical Twilight 4:04 AM CDT 10:10 PM CDT
Moon 2:28 PM CDT (5/19) 2:15 AM CDT (5/19)
Length of Visible Light 15h 26m
Length of Day
14h 25m
Waxing Gibbous, 65% of the Moon is Illuminated
May 19
Waxing Gibbous
May 24
Full
May 31
Last Quarter
Jun 8
New
Jun 16
First Quarter

Hourly Weather History & Observations

Time (CDT) Temp. Heat Index Dew Point Humidity Pressure Visibility Wind Dir Wind Speed Gust Speed Precip Events Conditions
12:15 AM 74.8 °F - 67.8 °F 79% 29.84 in 10.0 mi SSE 6.9 mph - N/A   Overcast
12:35 AM 74.8 °F - 68.0 °F 79% 29.83 in 10.0 mi SE 9.2 mph - N/A   Overcast
12:55 AM 74.5 °F - 68.2 °F 81% 29.83 in 10.0 mi SE 10.4 mph - N/A   Scattered Clouds
1:15 AM 73.9 °F - 68.5 °F 83% 29.82 in 10.0 mi SE 9.2 mph - N/A   Clear
1:35 AM 73.6 °F - 68.9 °F 85% 29.84 in 10.0 mi SSW 3.5 mph - N/A   Clear
1:55 AM 73.4 °F - 69.1 °F 86% 29.85 in 10.0 mi SSE 3.5 mph - N/A   Clear
2:15 AM 72.7 °F - 69.8 °F 91% 29.84 in 10.0 mi SE 4.6 mph - N/A   Clear
2:35 AM 72.1 °F - 69.8 °F 92% 29.83 in 7.0 mi ESE 5.8 mph - N/A   Clear
2:55 AM 71.8 °F - 69.8 °F 93% 29.83 in 7.0 mi SE 5.8 mph - N/A   Clear
3:15 AM 71.6 °F - 69.8 °F 94% 29.84 in 7.0 mi SE 5.8 mph - N/A   Clear
3:35 AM 71.6 °F - 69.8 °F 94% 29.83 in 7.0 mi SE 5.8 mph - N/A   Scattered Clouds
3:55 AM 72.0 °F - 70.0 °F 93% 29.83 in 7.0 mi SE 5.8 mph - N/A   Mostly Cloudy
4:15 AM 72.5 °F - 70.2 °F 92% 29.83 in 7.0 mi ESE 4.6 mph - N/A   Overcast
4:35 AM 72.0 °F - 70.0 °F 93% 29.82 in 7.0 mi SE 5.8 mph - N/A   Mostly Cloudy
4:55 AM 71.8 °F - 70.0 °F 94% 29.82 in 7.0 mi SE 5.8 mph - N/A   Overcast
5:15 AM 72.1 °F - 70.0 °F 93% 29.81 in 7.0 mi Calm Calm - N/A   Overcast
5:35 AM 72.0 °F - 69.8 °F 93% 29.79 in 7.0 mi ESE 9.2 mph - N/A   Scattered Clouds
5:55 AM 71.1 °F - 69.4 °F 95% 29.79 in 5.0 mi ESE 5.8 mph - N/A   Clear
6:15 AM 70.7 °F - 69.3 °F 95% 29.78 in 4.0 mi ESE 4.6 mph - N/A   Clear
6:35 AM 70.5 °F - 69.3 °F 96% 29.78 in 4.0 mi ESE 8.1 mph - N/A   Clear
6:55 AM 70.7 °F - 69.4 °F 96% 29.79 in 4.0 mi SSE 6.9 mph - N/A   Clear
7:15 AM 70.9 °F - 69.6 °F 96% 29.82 in 4.0 mi South 9.2 mph - N/A   Clear
7:35 AM 71.4 °F - 69.8 °F 95% 29.83 in 4.0 mi South 8.1 mph - N/A   Mostly Cloudy
7:55 AM 72.1 °F - 70.2 °F 93% 29.84 in 4.0 mi SSE 11.5 mph - N/A   Scattered Clouds
8:15 AM 73.2 °F - 70.3 °F 91% 29.86 in 5.0 mi South 8.1 mph - N/A   Clear
8:35 AM 73.8 °F - 70.5 °F 90% 29.89 in 5.0 mi SSW 8.1 mph - N/A   Mostly Cloudy
8:55 AM 74.3 °F - 70.5 °F 88% 29.89 in 5.0 mi South 5.8 mph - N/A   Mostly Cloudy
9:15 AM 75.0 °F - 70.5 °F 86% 29.87 in 7.0 mi SW 3.5 mph - N/A Rain Light Rain
9:35 AM 74.3 °F - 70.2 °F 87% 29.83 in 5.0 mi East 5.8 mph - N/A   Scattered Clouds
9:55 AM 75.7 °F - 71.6 °F 87% 29.78 in 7.0 mi East 10.4 mph - N/A   Clear
10:15 AM 77.5 °F - 69.8 °F 77% 29.78 in 10.0 mi ESE 12.7 mph - N/A   Scattered Clouds
10:35 AM 76.5 °F - 68.0 °F 75% 29.78 in 7.0 mi SE 15.0 mph - N/A   Scattered Clouds
10:55 AM 78.6 °F - 66.7 °F 67% 29.79 in 10.0 mi SSE 8.1 mph - N/A   Clear
11:15 AM 80.1 °F 82.0 °F 65.7 °F 61% 29.80 in 10.0 mi SE 12.7 mph - N/A   Clear
11:35 AM 80.2 °F 82.0 °F 64.6 °F 59% 29.78 in 10.0 mi SE 17.3 mph 21.9 mph N/A   Clear
11:55 AM 81.5 °F 83.1 °F 64.2 °F 56% 29.76 in 10.0 mi SE 18.4 mph 25.3 mph N/A   Clear
12:15 PM 82.2 °F 83.5 °F 63.5 °F 53% 29.75 in 10.0 mi SE 18.4 mph 26.5 mph N/A   Clear
12:35 PM 83.1 °F 85.0 °F 65.5 °F 55% 29.74 in 10.0 mi SE 17.3 mph 24.2 mph N/A   Scattered Clouds
12:55 PM 84.0 °F 87.6 °F 68.5 °F 60% 29.74 in 10.0 mi SSE 12.7 mph 19.6 mph N/A   Scattered Clouds
1:15 PM 84.7 °F 88.2 °F 68.5 °F 58% 29.73 in 10.0 mi SSE 12.7 mph - N/A   Scattered Clouds
1:35 PM 85.3 °F 88.8 °F 68.5 °F 57% 29.72 in 10.0 mi SSE 16.1 mph 23.0 mph N/A   Scattered Clouds
2:15 PM 85.6 °F 88.5 °F 67.5 °F 54% 29.71 in 10.0 mi South 23.0 mph 26.5 mph N/A   Mostly Cloudy
2:35 PM 86.5 °F 89.0 °F 66.6 °F 51% 29.69 in 10.0 mi South 11.5 mph - N/A   Mostly Cloudy
2:55 PM 86.7 °F 89.3 °F 66.6 °F 51% 29.69 in 10.0 mi SSE 15.0 mph 24.2 mph N/A   Overcast
3:15 PM 86.2 °F 87.9 °F 64.9 °F 49% 29.68 in 10.0 mi SSE 23.0 mph 27.6 mph N/A   Overcast
3:35 PM 86.5 °F 87.8 °F 64.2 °F 47% 29.68 in 10.0 mi South 17.3 mph 25.3 mph N/A   Mostly Cloudy
3:55 PM 86.9 °F 88.1 °F 63.9 °F 46% 29.67 in 10.0 mi South 11.5 mph 18.4 mph N/A   Overcast
4:15 PM 86.5 °F 88.1 °F 64.9 °F 48% 29.66 in 10.0 mi SSE 19.6 mph 25.3 mph N/A   Overcast
4:35 PM 86.2 °F 88.2 °F 65.7 °F 50% 29.65 in 10.0 mi SSE 12.7 mph 23.0 mph N/A   Mostly Cloudy
4:55 PM 85.6 °F 87.4 °F 65.3 °F 50% 29.64 in 10.0 mi SSE 13.8 mph - N/A   Mostly Cloudy
5:15 PM 86.2 °F 87.6 °F 64.2 °F 48% 29.63 in 10.0 mi SSE 17.3 mph 26.5 mph N/A   Scattered Clouds
5:35 PM 86.7 °F 88.1 °F 64.4 °F 47% 29.62 in 10.0 mi SSE 16.1 mph 21.9 mph N/A   Clear
5:55 PM 86.5 °F 88.1 °F 64.6 °F 48% 29.63 in 10.0 mi South 16.1 mph 24.2 mph N/A   Scattered Clouds
6:15 PM 85.6 °F 86.6 °F 63.1 °F 47% 29.64 in 10.0 mi South 13.8 mph 19.6 mph N/A   Scattered Clouds
6:35 PM 85.5 °F 86.1 °F 62.6 °F 46% 29.63 in 10.0 mi South 12.7 mph - N/A   Scattered Clouds
6:55 PM 84.4 °F 85.2 °F 62.8 °F 48% 29.61 in 10.0 mi SSE 17.3 mph 24.2 mph N/A   Scattered Clouds
7:15 PM 83.8 °F 84.3 °F 61.3 °F 47% 29.60 in 10.0 mi SSE 13.8 mph - N/A   Clear
7:35 PM 82.6 °F 83.2 °F 61.9 °F 49% 29.63 in 10.0 mi SSE 10.4 mph - N/A   Clear
7:55 PM 82.2 °F 83.0 °F 62.1 °F 50% 29.63 in 10.0 mi SSE 9.2 mph 17.3 mph N/A   Clear
8:15 PM 82.0 °F 82.8 °F 61.9 °F 50% 29.66 in 10.0 mi South 10.4 mph - N/A   Clear
8:35 PM 82.0 °F 82.8 °F 61.5 °F 50% 29.67 in 10.0 mi SSE 13.8 mph - N/A   Mostly Cloudy
8:55 PM 81.9 °F 82.6 °F 61.3 °F 50% 29.70 in 10.0 mi SW 9.2 mph 19.6 mph N/A   Mostly Cloudy
9:15 PM 80.2 °F 81.3 °F 61.7 °F 53% 29.70 in 7.0 mi SSW 9.2 mph 21.9 mph 0.02 in Rain , Thunderstorm Thunderstorms and Rain
9:35 PM 74.3 °F - 63.9 °F 70% 29.71 in 10.0 mi SSE 13.8 mph 25.3 mph 0.02 in Rain , Thunderstorm Light Thunderstorms and Rain
9:55 PM 73.4 °F - 63.5 °F 71% 29.75 in 10.0 mi West 10.4 mph 32.2 mph 0.02 in   Overcast
10:15 PM 70.0 °F - 61.2 °F 73% 29.76 in 10.0 mi Calm Calm - N/A   Scattered Clouds
10:35 PM 68.5 °F - 60.8 °F 76% 29.72 in 10.0 mi NE 5.8 mph - N/A Rain Light Rain
10:55 PM 67.6 °F - 60.8 °F 79% 29.70 in 10.0 mi NE 3.5 mph - N/A   Clear
11:15 PM 66.9 °F - 61.0 °F 81% 29.71 in 10.0 mi Calm Calm - N/A   Clear
11:35 PM 66.2 °F - 62.2 °F 87% 29.71 in 10.0 mi Calm Calm - N/A Thunderstorm Clear
11:55 PM 66.6 °F - 62.1 °F 85% 29.82 in 10.0 mi West 25.3 mph 35.7 mph N/A Rain , Thunderstorm Light Thunderstorms and Rain